When you browse on this site, cookies collect data to enhance your experience and personalize the content and advertising you see.
Visit our Privacy Policy to learn more. By continuing to use the site, you agree to this use of cookies and data.
  • In Portugal
  • List of Countries
  • For 7 days
  • Water Temperature
  • Satellite Maps
  • Weather Map
  • Weather Widgets
  • user-avatar
    Login

    Hourly Weather La Rioja

    Today, 22 May, Wednesday

    Time Temperature Precipitation Wind Pressure Humidity
    00:00 +8°C° 0 mm 3 mps 722 mmHg 73%
    01:00 +7°C° 0 mm 3 mps 722 mmHg 73%
    02:00 +7°C° 0 mm 3 mps 722 mmHg 73%
    03:00 +7°C° 0 mm 3 mps 722 mmHg 74%
    04:00 +7°C° 0 mm 3 mps 722 mmHg 75%
    05:00 +5°C° 0 mm 3 mps 722 mmHg 76%
    06:00 +7°C° 0 mm 3 mps 722 mmHg 75%
    07:00 +7°C° 0 mm 3 mps 722 mmHg 73%
    08:00 +7°C° 0 mm 2 mps 723 mmHg 72%
    09:00 +9°C° 0 mm 3 mps 723 mmHg 66%
    10:00 +10°C° 0 mm 3 mps 723 mmHg 59%
    11:00 +11°C° 0 mm 4 mps 723 mmHg 52%
    12:00 +12°C° 0 mm 4 mps 722 mmHg 47%
    13:00 +13°C° 0 mm 4 mps 722 mmHg 42%
    14:00 +14°C° 0 mm 4 mps 721 mmHg 37%
    15:00 +14°C° 0 mm 3 mps 721 mmHg 37%
    16:00 +14°C° 0 mm 3 mps 720 mmHg 36%
    17:00 +15°C° 0 mm 2 mps 720 mmHg 36%
    18:00 +13°C° 0 mm 2 mps 720 mmHg 42%
    19:00 +10°C° 0 mm 2 mps 721 mmHg 47%
    20:00 +9°C° 0 mm 2 mps 721 mmHg 53%
    21:00 +9°C° 0 mm 1 mps 721 mmHg 55%
    22:00 +9°C° 0 mm 1 mps 721 mmHg 57%
    23:00 +8°C° 0 mm 1 mps 721 mmHg 59%

    Tomorrow, 23 May, Thursday

    Time Temperature Precipitation Wind Pressure Humidity
    00:00 +8°C° 0 mm 1 mps 721 mmHg 59%
    01:00 +7°C° 0 mm 1 mps 721 mmHg 60%
    02:00 +7°C° 0 mm 1 mps 721 mmHg 61%
    03:00 +7°C° 0 mm 1 mps 720 mmHg 59%
    04:00 +7°C° 0 mm 1 mps 720 mmHg 58%
    05:00 +5°C° 0 mm 0 mps 720 mmHg 56%
    06:00 +7°C° 0 mm 1 mps 720 mmHg 52%
    07:00 +8°C° 0 mm 1 mps 720 mmHg 47%
    08:00 +9°C° 0 mm 1 mps 720 mmHg 43%
    09:00 +12°C° 0 mm 1 mps 720 mmHg 35%
    10:00 +15°C° 0 mm 2 mps 720 mmHg 27%
    11:00 +18°C° 0 mm 2 mps 720 mmHg 18%
    12:00 +19°C° 0 mm 2 mps 720 mmHg 17%
    13:00 +21°C° 0 mm 2 mps 719 mmHg 15%
    14:00 +23°C° 0 mm 2 mps 718 mmHg 13%
    15:00 +21°C° 0 mm 2 mps 718 mmHg 15%
    16:00 +21°C° 0 mm 2 mps 717 mmHg 17%
    17:00 +20°C° 0 mm 2 mps 717 mmHg 18%
    18:00 +17°C° 0 mm 2 mps 717 mmHg 25%
    19:00 +14°C° 0 mm 1 mps 716 mmHg 32%
    20:00 +12°C° 0 mm 1 mps 716 mmHg 39%
    21:00 +11°C° 0 mm 1 mps 716 mmHg 40%
    22:00 +11°C° 0 mm 1 mps 716 mmHg 40%
    23:00 +10°C° 0 mm 1 mps 716 mmHg 41%

    Day after tomorrow, 24 May, Friday

    Time Temperature Precipitation Wind Pressure Humidity
    00:00 +10°C° 0 mm 1 mps 716 mmHg 43%
    01:00 +10°C° 0 mm 1 mps 715 mmHg 44%
    02:00 +9°C° 0 mm 1 mps 715 mmHg 45%
    03:00 +9°C° 0 mm 1 mps 715 mmHg 46%
    04:00 +9°C° 0 mm 1 mps 714 mmHg 46%
    05:00 +9°C° 0 mm 1 mps 714 mmHg 46%
    06:00 +9°C° 0 mm 1 mps 714 mmHg 43%
    07:00 +10°C° 0 mm 1 mps 714 mmHg 40%
    08:00 +11°C° 0 mm 1 mps 715 mmHg 37%
    09:00 +14°C° 0 mm 1 mps 715 mmHg 33%
    10:00 +16°C° 0 mm 2 mps 715 mmHg 28%
    11:00 +19°C° 0 mm 2 mps 715 mmHg 24%
    12:00 +20°C° 0 mm 2 mps 714 mmHg 23%
    13:00 +20°C° 0 mm 2 mps 713 mmHg 23%
    14:00 +21°C° 0 mm 3 mps 712 mmHg 22%
    15:00 +21°C° 0 mm 2 mps 711 mmHg 24%
    16:00 +20°C° 0 mm 2 mps 711 mmHg 27%
    17:00 +20°C° 0 mm 1 mps 711 mmHg 29%
    18:00 +19°C° 0 mm 1 mps 711 mmHg 33%
    19:00 +16°C° 0 mm 2 mps 711 mmHg 37%
    20:00 +14°C° 0 mm 2 mps 711 mmHg 41%
    21:00 +14°C° 0 mm 2 mps 711 mmHg 41%
    22:00 +15°C° 0 mm 2 mps 711 mmHg 41%
    23:00 +15°C° 0 mm 2 mps 711 mmHg 41%

    25 May, Saturday

    Time Temperature Precipitation Wind Pressure Humidity
    00:00 +14°C° 0 mm 2 mps 711 mmHg 45%
    01:00 +14°C° 0 mm 2 mps 710 mmHg 48%
    02:00 +14°C° 0 mm 2 mps 710 mmHg 52%
    03:00 +13°C° 0 mm 2 mps 709 mmHg 55%
    04:00 +13°C° 0 mm 2 mps 709 mmHg 57%
    05:00 +13°C° 0 mm 2 mps 709 mmHg 59%
    06:00 +13°C° 0 mm 2 mps 709 mmHg 57%
    07:00 +13°C° 0 mm 2 mps 710 mmHg 56%
    08:00 +14°C° 0 mm 2 mps 710 mmHg 54%
    09:00 +16°C° 0 mm 2 mps 710 mmHg 48%
    10:00 +18°C° 0 mm 2 mps 710 mmHg 43%
    11:00 +20°C° 0 mm 2 mps 710 mmHg 38%
    12:00 +21°C° 0 mm 3 mps 709 mmHg 36%
    13:00 +22°C° 0 mm 3 mps 708 mmHg 34%
    14:00 +22°C° 0 mm 3 mps 708 mmHg 32%
    15:00 +22°C° 0 mm 3 mps 708 mmHg 34%
    16:00 +21°C° 0 mm 2 mps 708 mmHg 36%
    17:00 +20°C° 0 mm 2 mps 708 mmHg 38%
    18:00 +19°C° 0 mm 2 mps 708 mmHg 42%
    19:00 +18°C° 0 mm 2 mps 709 mmHg 46%
    20:00 +17°C° 0 mm 2 mps 709 mmHg 50%
    21:00 +16°C° 0 mm 2 mps 709 mmHg 53%
    22:00 +16°C° 0 mm 2 mps 710 mmHg 56%
    23:00 +14°C° 0 mm 3 mps 710 mmHg 60%

    26 May, Sunday

    Time Temperature Precipitation Wind Pressure Humidity
    00:00 +14°C° 0 mm 3 mps 710 mmHg 62%
    01:00 +13°C° 0 mm 3 mps 709 mmHg 64%
    02:00 +14°C° 0 mm 2 mps 709 mmHg 67%
    03:00 +12°C° 0 mm 3 mps 709 mmHg 68%
    04:00 +12°C° 0 mm 3 mps 709 mmHg 70%
    05:00 +12°C° 0 mm 3 mps 709 mmHg 71%
    06:00 +12°C° 0 mm 3 mps 710 mmHg 70%
    07:00 +13°C° 0 mm 3 mps 710 mmHg 68%
    08:00 +13°C° 0 mm 3 mps 711 mmHg 67%
    09:00 +16°C° 0 mm 3 mps 711 mmHg 58%
    10:00 +18°C° 0 mm 3 mps 711 mmHg 49%
    11:00 +21°C° 0 mm 3 mps 711 mmHg 40%
    12:00 +21°C° 0 mm 3 mps 711 mmHg 39%
    13:00 +22°C° 0 mm 3 mps 710 mmHg 37%
    14:00 +24°C° 0 mm 3 mps 709 mmHg 35%
    15:00 +22°C° 0 mm 3 mps 709 mmHg 37%
    16:00 +23°C° 0 mm 2 mps 709 mmHg 39%
    17:00 +21°C° 0 mm 2 mps 709 mmHg 41%
    18:00 +20°C° 0 mm 1 mps 709 mmHg 50%
    19:00 +18°C° 0 mm 1 mps 710 mmHg 59%
    20:00 +15°C° 0 mm 1 mps 710 mmHg 67%
    21:00 +15°C° 0 mm 1 mps 711 mmHg 70%
    22:00 +14°C° 0 mm 1 mps 711 mmHg 73%
    23:00 +14°C° 0 mm 1 mps 711 mmHg 75%

    27 May, Monday

    Time Temperature Precipitation Wind Pressure Humidity
    00:00 +14°C° 0 mm 1 mps 711 mmHg 78%
    01:00 +14°C° 0 mm 2 mps 711 mmHg 81%
    02:00 +14°C° 0 mm 2 mps 711 mmHg 84%
    03:00 +14°C° 0 mm 2 mps 711 mmHg 85%
    04:00 +14°C° 0 mm 2 mps 711 mmHg 86%
    05:00 +14°C° 0 mm 2 mps 711 mmHg 86%
    06:00 +15°C° 0 mm 2 mps 712 mmHg 84%
    07:00 +15°C° 0 mm 2 mps 712 mmHg 82%
    08:00 +15°C° 0 mm 2 mps 713 mmHg 80%
    09:00 +17°C° 0 mm 2 mps 713 mmHg 73%
    10:00 +18°C° 0 mm 2 mps 713 mmHg 65%
    11:00 +20°C° 0 mm 3 mps 713 mmHg 57%
    12:00 +20°C° 0.1 mm 3 mps 712 mmHg 54%
    13:00 +21°C° 0.1 mm 3 mps 712 mmHg 50%
    14:00 +22°C° 0.1 mm 3 mps 711 mmHg 47%
    15:00 +21°C° 0.1 mm 2 mps 711 mmHg 50%
    16:00 +20°C° 0.1 mm 2 mps 711 mmHg 53%
    17:00 +20°C° 0.1 mm 2 mps 711 mmHg 56%
    18:00 +18°C° 0 mm 2 mps 712 mmHg 63%
    19:00 +17°C° 0 mm 2 mps 713 mmHg 71%
    20:00 +15°C° 0 mm 2 mps 713 mmHg 78%
    21:00 +15°C° 0 mm 2 mps 714 mmHg 71%
    22:00 +14°C° 0 mm 3 mps 715 mmHg 65%
    23:00 +13°C° 0 mm 3 mps 715 mmHg 58%
    Show more